TimeEDT,TemperatureF,Dew PointF,Humidity,Sea Level PressureIn,VisibilityMPH,Wind Direction,Wind SpeedMPH,Gust SpeedMPH,PrecipitationIn,Events,Conditions,WindDirDegrees,DateUTC
12:56 AM,50.0,46.9,89,30.17,9.0,NNE,4.6,-,N/A,,Overcast,20,2012-10-09 04:56:00
1:56 AM,50.0,48.0,93,30.17,6.0,North,6.9,-,N/A,,Overcast,350,2012-10-09 05:56:00
2:56 AM,48.9,46.9,93,30.16,10.0,North,5.8,-,N/A,,Overcast,360,2012-10-09 06:56:00
3:56 AM,48.9,46.9,93,30.15,10.0,North,5.8,-,N/A,,Overcast,360,2012-10-09 07:56:00
4:23 AM,48.2,46.4,93,30.15,10.0,North,4.6,-,N/A,,Overcast,10,2012-10-09 08:23:00
4:56 AM,50.0,46.9,89,30.15,10.0,North,4.6,-,N/A,,Overcast,360,2012-10-09 08:56:00
5:01 AM,48.2,46.4,93,30.15,10.0,NW,3.5,-,N/A,,Overcast,320,2012-10-09 09:01:00
5:48 AM,48.2,46.4,93,30.15,6.0,North,4.6,-,N/A,,Overcast,360,2012-10-09 09:48:00
5:56 AM,48.9,46.9,93,30.15,6.0,North,3.5,-,N/A,,Overcast,360,2012-10-09 09:56:00
6:34 AM,48.2,46.4,93,30.17,10.0,North,4.6,-,N/A,,Overcast,350,2012-10-09 10:34:00
6:47 AM,48.2,46.4,93,30.17,10.0,North,3.5,-,N/A,,Overcast,360,2012-10-09 10:47:00
6:56 AM,48.9,46.0,90,30.18,10.0,North,5.8,-,N/A,,Overcast,350,2012-10-09 10:56:00
7:12 AM,48.2,46.4,93,30.18,10.0,North,3.5,-,N/A,,Overcast,360,2012-10-09 11:12:00
7:21 AM,48.2,46.4,93,30.19,10.0,North,3.5,-,N/A,,Overcast,360,2012-10-09 11:21:00
7:56 AM,50.0,46.0,86,30.19,10.0,Calm,Calm,-,N/A,,Overcast,0,2012-10-09 11:56:00
8:32 AM,50.0,46.4,87,30.20,10.0,North,4.6,-,N/A,,Overcast,360,2012-10-09 12:32:00
8:56 AM,50.0,46.9,89,30.21,10.0,North,4.6,-,N/A,,Overcast,360,2012-10-09 12:56:00
9:22 AM,51.8,46.4,82,30.21,10.0,NNE,4.6,-,N/A,,Overcast,30,2012-10-09 13:22:00
9:37 AM,51.8,46.4,82,30.21,10.0,North,4.6,-,N/A,,Overcast,360,2012-10-09 13:37:00
9:56 AM,52.0,46.0,80,30.21,10.0,North,4.6,-,N/A,,Overcast,350,2012-10-09 13:56:00
10:19 AM,51.8,46.4,82,30.21,10.0,North,6.9,-,N/A,,Overcast,10,2012-10-09 14:19:00
10:56 AM,53.1,46.0,77,30.21,9.0,NNE,6.9,-,N/A,,Overcast,20,2012-10-09 14:56:00
11:56 AM,53.1,46.0,77,30.20,10.0,Variable,3.5,-,N/A,,Overcast,0,2012-10-09 15:56:00
12:56 PM,55.0,46.0,72,30.18,10.0,Variable,4.6,-,N/A,,Overcast,0,2012-10-09 16:56:00
1:56 PM,55.9,46.9,72,30.16,10.0,Variable,3.5,-,N/A,,Overcast,0,2012-10-09 17:56:00
2:56 PM,55.9,46.9,72,30.15,10.0,NNE,4.6,-,N/A,,Overcast,30,2012-10-09 18:56:00
3:56 PM,57.0,46.9,69,30.14,10.0,North,6.9,-,N/A,,Overcast,10,2012-10-09 19:56:00
4:56 PM,59.0,46.9,64,30.12,10.0,North,6.9,-,N/A,,Overcast,360,2012-10-09 20:56:00
5:56 PM,57.0,46.9,69,30.13,10.0,NE,3.5,-,N/A,,Mostly Cloudy,50,2012-10-09 21:56:00
6:13 PM,57.2,46.4,67,30.13,10.0,NNE,4.6,-,N/A,,Scattered Clouds,20,2012-10-09 22:13:00
6:56 PM,53.1,46.9,80,30.12,10.0,Calm,Calm,-,N/A,,Clear,0,2012-10-09 22:56:00
7:56 PM,50.0,46.9,89,30.13,10.0,ENE,4.6,-,N/A,,Clear,60,2012-10-09 23:56:00
8:56 PM,48.0,46.0,93,30.14,10.0,Calm,Calm,-,N/A,,Clear,0,2012-10-10 00:56:00
9:56 PM,45.0,44.1,97,30.14,10.0,Calm,Calm,-,N/A,,Clear,0,2012-10-10 01:56:00
10:56 PM,45.0,44.1,97,30.14,10.0,Calm,Calm,-,N/A,,Clear,0,2012-10-10 02:56:00
11:56 PM,45.0,43.0,93,30.15,10.0,Calm,Calm,-,N/A,,Clear,0,2012-10-10 03:56:00